www.pogodaiklimat.ru

Погода и климат >> Архив погоды >> Аргентина >> Villa de Maria del Rio Seco


ПОГОДА в Villa de Maria del Rio Seco

  • Прогноз погоды в Villa de Maria del Rio Seco
  • Монитор погоды в Villa de Maria del Rio Seco
  • Климат города

АРХИВ ПОГОДЫ в Villa de Maria del Rio Seco

Время (UTC), дата Ветер
(напр.,м/с)
 
Видим.   Явления Облачность Т
(С)
Тd
(С)
f
(%)
Тe
(С)
Тes
(С)
Комфортность P
(гПа)
Po
(гПа)
Тmin
(С)
Tmax
(С)
R
(мм)
R24
(мм)
S
(см)
03 8.12 штиль 0 17 км ясно +15.2 +13.3 88 +15 +15 1021.0 981.4
06 8.12 штиль 0 17 км ясно +12.6 +11.1 91 +12 +12 1019.4 980.0
09 8.12 штиль 0 17 км ясно +11.1 +10.2 94 +10 +10 1017.6 978.1
12 8.12 С 3 17 км ясно +22.4 +12.9 55 +25 +31 комфорт 1017.4 978.2 +11.1 +22.4
15 8.12 СВ 4 17 км 4/1 900 м
[Cu hum Ci fib]
+26.8 +12.9 42 +28 +40 жарко 1018.9 979.6
18 8.12 СВ 4 17 км 5/0
[Cs]
+29.2 +11.9 34 +30 +41 жарко 1011.4 972.2
21 8.12 С 4 17 км 4/0
[Cs]
+29.3 +12.2 35 +30 +33 жарко 1006.5 967.6
00 9.12 штиль 0 17 км 6/1 900 м
[Cu hum Ac As]
+24.4 +14.6 54 +27 +27 жарко 1008.0 969.4 +22.5 +31.0
03 9.12 СВ 1 17 км 9/9 750 м
[Sc]
+23.8 +13.1 51 +26 +26 жарко 1008.9 970.5
06 9.12 штиль 0 17 км 5/0
[Ac As]
+22.4 +12.9 55 +25 +25 комфорт 1006.6 968.4
09 9.12 штиль 0 17 км ясно +16.1 +13.2 83 +16 +16 1007.5 968.8
12 9.12 СВ 1 17 км 1/1 1200 м
[Sc Ac trans]
+22.1 +14.0 60 +25 +32 комфорт 1010.4 971.7 +15.1 +24.5
15 9.12 С 4 17 км 8/6 1500 м
[Cu med, cong Ac cuf]
+30.5 +16.8 44 +34 +37 очень
душно
1009.8 971.6
18 9.12 С 4 17 км 8/6 1500 м
[Cu med, cong Ac cuf]
+33.2 +16.7 37 +36 +39 очень
душно
1007.5 969.4
21 9.12 В 3 17 км 1/1 1500 м
[Sc diur, vesp Ac cuf]
+34.6 +17.8 37 +38 +42 очень
душно
1006.4 968.1
00 10.12 СВ 1 17 км 1/1 1350 м
[Sc diur, vesp Ac As]
+28.8 +18.5 54 +34 +34 очень
душно
1009.1 970.8 +22.1 +34.8
03 10.12 штиль 0 17 км 1/0
[Ci sp]
+23.0 +19.0 78 +29 +29 очень
душно
1011.5 973.2
06 10.12 штиль 0 17 км 5/5 1050 м
[Sc diur, vesp]
+21.6 +18.3 82 +26 +26 душно 1010.5 972.4
09 10.12 штиль 0 17 км 3/3 1200 м
[Cu med, cong]
+20.7 +17.2 80 +24 +24 комфорт 1012.2 974.0
12 10.12 ЮВ 1 18 км ясно +26.8 +18.3 60 +32 +39 очень
душно
1012.3 974.1 +20.4 +28.8
15 10.12 В 4 18 км 1/1 1050 м
[Cu hum]
+33.2 +18.2 41 +38 +49 очень
душно
1010.6 972.5
18 10.12 С 7 17 км 6/6 1050 м
[Cu hum]
+36.0 +16.1 31 +38 +41 очень
душно
1007.7 969.8
21 10.12 С 7 17 км 6/6 1200 м
[Cu hum]
+36.6 +18.2 34 +40 +41 очень
душно
1004.8 967.0
00 11.12 С 4 17 км ясно +32.0 +18.5 45 +37 +37 очень
душно
1005.2 967.4 +26.8 +37.2
03 11.12 С 4 17 км ясно +29.9 +19.7 54 +36 +36 очень
душно
1005.3 967.8
06 11.12 СВ 1 17 км ясно +28.0 +22.2 71 +37 +37 очень
душно
1003.4 966.0
09 11.12 СВ 3 17 км ясно +25.7 +22.2 81 +33 +33 очень
душно
1003.7 965.7
12 11.12 С 4 17 км ясно +31.6 +22.2 58 +41 +45 опасность
перегрева
1003.1 965.7 +25.3 +32.0
15 11.12 С 7 17 км 1/1 1050 м
[Cu hum]
+37.5 +20.9 38 +44 +50 опасность
перегрева
1002.8 965.6
18 11.12 С 4 17 км 1/1 1050 м
[Cu hum]
+40.8 +20.5 31 +46 +57 опасность
перегрева
1001.2 964.2
21 11.12 З 1 17 км 3/3 1050 м
[Cu med, cong]
+41.6 +20.3 30 +47 +51 опасность
перегрева
999.7 962.6
00 12.12 Ю 7 15 км зарница 4/3 900 м
[Cu med, cong Ac As]
+30.5 +22.7 63 +40 +40 очень
душно
1004.8 967.3 +30.5 +42.1
03 12.12 Ю 7 17 км 10/10 1000 м
[St]
+25.6 +22.7 84 +34 +34 очень
душно
1008.4 970.8
06 12.12 Ю 4 10 км гроза, ливневой дождь 10/8 750 м
[Frnb As op]
+24.4 +21.5 84 +31 +31 очень
душно
1008.9 971.4 0.0
09 12.12 Ю 3 15 км гроза, ливневой дождь 10/8 450 м
[Cb cap As op]
+21.6 +21.0 96 +27 +27 душно 1011.4 973.6
12 12.12 ЮВ 3 17 км в посл. час морось {гроза} 10/10 600 м
[St]
+20.8 +19.9 95 +26 +26 душно 1012.7 974.2 +20.9 +30.5 6
15 12.12 ЮВ 1 17 км 10/10 600 м
[Sc]
+22.2 +20.7 91 +29 +29 очень
душно
1013.0 974.2
18 12.12 ЮВ 1 14 км дымка 10/10 570 м
[Sc]
+22.6 +20.8 90 +30 +30 очень
душно
1012.7 974.0
21 12.12 Ю 1 5000 м слабая морось 10/6 570 м
[Frnb As op]
+22.4 +20.8 91 +29 +30 очень
душно
1011.5 972.5
00 13.12 штиль 0 10 км в посл. час морось 10/8 570 м
[Frnb As op]
+22.5 +22.1 98 +30 +30 очень
душно
1011.0 972.0 +20.8 +23.2 0.9
03 13.12 штиль 0 10 км в посл. час морось 10/8 570 м
[Sc As op]
+22.6 +22.2 98 +30 +30 очень
душно
1011.3 972.4
06 13.12 СВ 3 8000 м слабая морось 10/9 150 м
[Frnb As op]
+22.3 +22.0 98 +30 +30 очень
душно
1008.0 969.2 0.0
12 13.12 СВ 1 17 км 9/9 540 м
[Frnb]
+22.0 +20.0 88 +28 +29 душно 1005.3 966.6 +20.7 +22.5 0.0
15 13.12 СВ 3 17 км 6/6 800 м
[Sc]
+25.9 +22.0 79 +33 +41 очень
душно
1003.5 965.2
18 13.12 ЮЗ 3 17 км 6/5 900 м
[Sc diur, vesp Ci fib]
+32.6 +25.2 65 +47 +55 опасность
перегрева
999.3 961.6
21 13.12 СВ 4 17 км 3/1 1050 м
[Cu hum Cs]
+33.3 +25.1 62 +47 +50 опасность
перегрева
997.0 959.3
00 14.12 СВ 1 17 км 6/0
[Ac As]
+29.2 +24.9 78 +42 +42 опасность
перегрева
997.2 959.3 +22.0 +34.0
03 14.12 СВ 1 17 км ясно +26.3 +24.5 90 +37 +37 очень
душно
997.5 959.6
06 14.12 Ю 12 6000 м зарница туман 1/1 1200 м
[Cb cap]
+28.3 +21.6 67 +36 +36 очень
душно
998.8 961.3
09 14.12 ЮВ 4 12 км 10/8 1200 м
[Cb cap Ac As]
+20.6 +18.3 87 +25 +25 комфорт 1004.2 966.1
12 14.12 ЮВ 3 17 км 8/8 660 м
[Sc]
+21.2 +17.4 79 +25 +26 комфорт 1007.4 969.0 +19.9 +29.2
15 14.12 Ю 4 17 км ясно +26.2 +15.3 51 +29 +42 жарко 1010.0 971.7
18 14.12 ЮВ 3 17 км 4/1 900 м
[Cu hum Cs]
+27.6 +15.2 47 +30 +44 жарко 1010.5 972.4
21 14.12 ЮВ 3 17 км 5/4 900 м
[Cu hum Cs]
+26.8 +14.9 48 +29 +32 жарко 1011.8 973.2

 

Местоположение метеостанции Villa de Maria del Rio Seco (Аргентина): широта -29.90 долгота -63.68 высота над уровнем моря 341 м.

В архиве по умолчанию представлена погода в Villa de Maria del Rio Seco за последнюю неделю. Архивные данные за месяц целиком и за предыдущие месяцы, начиная с января 2011 года, Вы можете получить, выбрав интересующий диапазон дат из раскрывающегося списка и нажав кнопку "Ввод!".


*Определитесь, кто Вы:
робот инопланетянин человек

Внимание! Время в таблицах - всемирное. Для получения местного времени необходимо прибавить поправку, которая в Villa de Maria del Rio Seco равна -3 ч.

Смотрите также архив погоды в соседних городах и на ближайших метеорологических станциях:

Погода в Cordoba (Аргентина) (165 км)
Погода в Ceres (Аргентина) (167 км)
Погода в Pilar (Аргентина) (197 км)
Погода в Santiago del Estero (Аргентина) (246 км)
Погода в San Fernando del Valle de Catamarca (Аргентина) (248 км)
Погода в Chamical (Аргентина) (255 км)
Погода в Villa Dolores (Аргентина) (267 км)
Погода в La Rioja (Аргентина) (308 км)
Погода в Santa Fe (Аргентина) (339 км)
Погода в Marcos Juarez (Аргентина) (344 км)

Пояснения к столбцам:

Ветер - указаны скорость ветра в м/с - средняя за 10 мин, порывы в срок и между сроками (в фигурных скобках) и направление, откуда дует ветер: С - северный, СВ - северо-восточный, В - восточный, ЮВ - юго-восточный, Ю - южный, ЮЗ - юго-западный, З - западный, СЗ - северо-западный.
Видимость - горизонтальная дальность видимости в метрах или километрах. При видимости от 1 до 10 км при отсутствии осадков обычно наблюдается дымка, при ухудшении видимости до 1 км и менее - туман. В сухую погоду видимость может ухудшаться дымом, пылью или мглою.
Явления - указаны атмосферные явления, наблюдавшиеся в срок или в последний час перед сроком; фигурными скобками обозначены явления, наблюдавшиеся между сроками (за 1-3 часа до срока); квадратными скобками обозначены град или гололедные отложения с указанием их диаметра в мм.
Облачность - указаны через наклонную черту общая и нижняя облачность в баллах и высота нижней границы облаков в метрах; квадратными скобками обозначены формы облаков: Ci - перистые, Cs - перисто-слоистые, Cc - перисто-кучевые, Ac - высококучевые, As - высокослоистые, Sc - слоисто-кучевые, Ns - слоисто-дождевые, Cu - кучевые, Cb - кучево-дождевые. Подробнее классификацию облаков см. в Атласе облаков (PDF).
T - Температура воздуха - температура, измеренная на высоте 2 м над землей.
Td - Температура точки росы - температура, при понижении до которой содержащийся в воздухе водяной пар достигнет насыщения.
f - Относительная влажность воздуха - влажноcть воздуха, измеренная на высоте 2 м над землей.
Te - Эффективная температура - температура, которую ощущает одетый по сезону человек в тени. Характеристика душности погоды. При расчете учитывается влияние влажности воздуха и скорости ветра на теплоощущения человека.
Tes - Эффективная температура на солнце - температура, которую ощущает человек, с поправкой на солнечный нагрев. Характеристика знойности погоды. Зависит от высоты солнца над горизонтом, облачности и скорости ветра. Ночью, в пасмурную погоду, а также при ветре 12 м/с и более поправка равна нулю.
P - Атмосферное давление - приведенное к уровню моря атмосферное давление.
Po - Атмосферное давление - измеренное на уровне метеостанции атмосферное давление.
Tmin - Минимальная температура - минимум температуры воздуха на высоте 2 м над землей.
Tmax - Максимальная температура - максимум температуры воздуха на высоте 2 м над землей.
R - Количество осадков - Количество выпавших осадков за период времени, мм. При наведении курсора мыши на число - период времени, за который выпало указанное количество осадков.
R24 - Количество осадков - Количество выпавших осадков за 24 часа, мм.
S - Снежный покров - Высота снежного покрова, см. При наведении курсора мыши на число - состояние снежного покрова и степень покрытия местности в баллах.